GPS BIIR-3 (PRN 11)

Last updated on Nov. 9, 2020, 6:27 a.m. UTC

1 25933U 99055A   20312.83476878 -.00000076  00000-0  00000-0 0  9993
2 25933  52.3562  23.8367 0154861 118.6729  39.7491  2.00557220154517
UTC
Height (km)
Latitude
Longitude
Inclination
Orbital Period
UTC large
Height (km)
Speed (km/s)
/
Latitude / Longitude
Inclination (degrees)
Orbital Period (minutes)
Azimuth
Elevation
Range (km)
Doppler Factor
iOS Compass Heading
iOS Angle